contact:dominique.lefevre@mio.osupytheas.fr, maurice.libes@osupytheas.fr, didier.mallarino@osupytheas.fr
Project:EMSO http://www.emso-fr.org/EMSO-France
Depth: 2436.0 m
Title:EMSO Ligure Ouest : Data MII capteur MICROCAT
DateTime_Computer,Latitude,Longitude,Temperature,Conductivity,Pressure,DateTime_Instrument
DateTime_Computer,Latitude,Longitude,degC,S m-1,dbar,DateTime_Instrument
2024-05-07T00:02:55Z,42.805,6.029,13.3039,4.60128,2470.763,2024-5-07T02:05:37Z
2024-05-07T00:05:58Z,42.805,6.029,13.3039,4.60127,2470.777,2024-5-07T02:08:40Z
2024-05-07T00:09:01Z,42.805,6.029,13.3036,4.60128,2470.763,2024-5-07T02:11:43Z
2024-05-07T00:12:04Z,42.805,6.029,13.3037,4.60127,2470.763,2024-5-07T02:14:46Z
2024-05-07T00:15:07Z,42.805,6.029,13.3038,4.60128,2470.763,2024-5-07T02:17:49Z
2024-05-07T00:18:10Z,42.805,6.029,13.3036,4.60127,2470.763,2024-5-07T02:20:52Z
2024-05-07T00:21:13Z,42.805,6.029,13.3042,4.60127,2470.787,2024-5-07T02:23:55Z
2024-05-07T00:24:17Z,42.805,6.029,13.3036,4.60127,2470.74,2024-5-07T02:26:58Z
2024-05-07T00:27:20Z,42.805,6.029,13.3038,4.60128,2470.73,2024-5-07T02:30:02Z
2024-05-07T00:30:23Z,42.805,6.029,13.3041,4.60129,2470.787,2024-5-07T02:33:05Z
2024-05-07T00:33:26Z,42.805,6.029,13.3041,4.60128,2470.763,2024-5-07T02:36:08Z
2024-05-07T00:36:29Z,42.805,6.029,13.3038,4.60128,2470.763,2024-5-07T02:39:11Z
2024-05-07T00:39:32Z,42.805,6.029,13.3039,4.60127,2470.763,2024-5-07T02:42:14Z
2024-05-07T00:42:35Z,42.805,6.029,13.3040,4.60127,2470.754,2024-5-07T02:45:17Z
2024-05-07T00:45:38Z,42.805,6.029,13.3042,4.60127,2470.763,2024-5-07T02:48:20Z
2024-05-07T00:48:41Z,42.805,6.029,13.3037,4.60128,2470.74,2024-5-07T02:51:23Z
2024-05-07T00:51:44Z,42.805,6.029,13.3039,4.60127,2470.74,2024-5-07T02:54:26Z
2024-05-07T00:54:47Z,42.805,6.029,13.3041,4.60127,2470.777,2024-5-07T02:57:29Z
2024-05-07T00:57:50Z,42.805,6.029,13.3041,4.60128,2470.763,2024-5-07T03:00:32Z
2024-05-07T01:00:53Z,42.805,6.029,13.3036,4.60127,2470.74,2024-5-07T03:03:35Z
2024-05-07T01:03:57Z,42.805,6.029,13.3040,4.60128,2470.777,2024-5-07T03:06:38Z
2024-05-07T01:07:00Z,42.805,6.029,13.3039,4.60127,2470.74,2024-5-07T03:09:42Z
2024-05-07T01:10:03Z,42.805,6.029,13.3040,4.60127,2470.74,2024-5-07T03:12:45Z
2024-05-07T01:13:06Z,42.805,6.029,13.3038,4.60128,2470.74,2024-5-07T03:15:48Z
2024-05-07T01:16:09Z,42.805,6.029,13.3035,4.60127,2470.74,2024-5-07T03:18:51Z
2024-05-07T01:19:12Z,42.805,6.029,13.3041,4.60127,2470.74,2024-5-07T03:21:54Z
2024-05-07T01:22:15Z,42.805,6.029,13.3039,4.60127,2470.74,2024-5-07T03:24:57Z
2024-05-07T01:25:18Z,42.805,6.029,13.3038,4.60127,2470.763,2024-5-07T03:28:00Z
2024-05-07T01:28:21Z,42.805,6.029,13.3039,4.60127,2470.74,2024-5-07T03:31:03Z
2024-05-07T01:31:24Z,42.805,6.029,13.3039,4.60126,2470.74,2024-5-07T03:34:06Z
2024-05-07T01:34:27Z,42.805,6.029,13.3036,4.60128,2470.791,2024-5-07T03:37:09Z
2024-05-07T01:37:30Z,42.805,6.029,13.3035,4.60128,2470.754,2024-5-07T03:40:12Z
2024-05-07T01:40:33Z,42.805,6.029,13.3039,4.60127,2470.787,2024-5-07T03:43:15Z
2024-05-07T01:43:37Z,42.805,6.029,13.3041,4.60127,2470.777,2024-5-07T03:46:19Z
2024-05-07T01:46:40Z,42.805,6.029,13.3033,4.60127,2470.763,2024-5-07T03:49:22Z
2024-05-07T01:49:43Z,42.805,6.029,13.3039,4.60126,2470.74,2024-5-07T03:52:25Z
2024-05-07T01:52:46Z,42.805,6.029,13.3037,4.60127,2470.763,2024-5-07T03:55:28Z
2024-05-07T01:55:49Z,42.805,6.029,13.3039,4.60130,2470.8,2024-5-07T03:58:31Z
2024-05-07T01:58:52Z,42.805,6.029,13.3038,4.60127,2470.777,2024-5-07T04:01:34Z
2024-05-07T02:01:55Z,42.805,6.029,13.3039,4.60129,2470.777,2024-5-07T04:04:37Z
2024-05-07T02:04:58Z,42.805,6.029,13.3036,4.60127,2470.763,2024-5-07T04:07:40Z
2024-05-07T02:08:01Z,42.805,6.029,13.3040,4.60129,2470.763,2024-5-07T04:10:43Z
2024-05-07T02:11:04Z,42.805,6.029,13.3038,4.60127,2470.763,2024-5-07T04:13:46Z
2024-05-07T02:14:07Z,42.805,6.029,13.3036,4.60129,2470.74,2024-5-07T04:16:49Z
2024-05-07T02:17:10Z,42.805,6.029,13.3039,4.60131,2470.8,2024-5-07T04:19:52Z
2024-05-07T02:20:13Z,42.805,6.029,13.3037,4.60128,2470.763,2024-5-07T04:22:55Z
2024-05-07T02:23:17Z,42.805,6.029,13.3038,4.60128,2470.787,2024-5-07T04:25:59Z
2024-05-07T02:26:20Z,42.805,6.029,13.3040,4.60127,2470.787,2024-5-07T04:29:02Z
2024-05-07T02:29:23Z,42.805,6.029,13.3036,4.60129,2470.833,2024-5-07T04:32:05Z
2024-05-07T02:32:26Z,42.805,6.029,13.3041,4.60129,2470.787,2024-5-07T04:35:08Z
2024-05-07T02:35:29Z,42.805,6.029,13.3036,4.60127,2470.787,2024-5-07T04:38:11Z
2024-05-07T02:38:32Z,42.805,6.029,13.3036,4.60128,2470.81,2024-5-07T04:41:14Z
2024-05-07T02:41:35Z,42.805,6.029,13.3043,4.60128,2470.777,2024-5-07T04:44:17Z
2024-05-07T02:44:38Z,42.805,6.029,13.3040,4.60129,2470.81,2024-5-07T04:47:20Z
2024-05-07T02:47:41Z,42.805,6.029,13.3038,4.60127,2470.824,2024-5-07T04:50:23Z
2024-05-07T02:50:44Z,42.805,6.029,13.3037,4.60127,2470.81,2024-5-07T04:53:26Z
2024-05-07T02:53:47Z,42.805,6.029,13.3040,4.60127,2470.787,2024-5-07T04:56:29Z
2024-05-07T02:56:50Z,42.805,6.029,13.3037,4.60129,2470.773,2024-5-07T04:59:32Z
2024-05-07T02:59:53Z,42.805,6.029,13.3036,4.60127,2470.81,2024-5-07T05:02:35Z
2024-05-07T03:02:57Z,42.805,6.029,13.3038,4.60127,2470.824,2024-5-07T05:05:38Z
2024-05-07T03:06:00Z,42.805,6.029,13.3043,4.60128,2470.787,2024-5-07T05:08:42Z
2024-05-07T03:09:03Z,42.805,6.029,13.3038,4.60131,2470.824,2024-5-07T05:11:45Z
2024-05-07T03:12:06Z,42.805,6.029,13.3038,4.60129,2470.81,2024-5-07T05:14:48Z
2024-05-07T03:15:09Z,42.805,6.029,13.3040,4.60129,2470.81,2024-5-07T05:17:51Z
2024-05-07T03:18:12Z,42.805,6.029,13.3041,4.60130,2470.857,2024-5-07T05:20:54Z
2024-05-07T03:21:15Z,42.805,6.029,13.3039,4.60129,2470.82,2024-5-07T05:23:57Z
2024-05-07T03:24:18Z,42.805,6.029,13.3040,4.60134,2470.833,2024-5-07T05:27:00Z
2024-05-07T03:27:21Z,42.805,6.029,13.3042,4.60129,2470.81,2024-5-07T05:30:03Z
2024-05-07T03:30:24Z,42.805,6.029,13.3038,4.60128,2470.871,2024-5-07T05:33:06Z
2024-05-07T03:33:27Z,42.805,6.029,13.3037,4.60130,2470.871,2024-5-07T05:36:09Z
2024-05-07T03:36:30Z,42.805,6.029,13.3035,4.60128,2470.81,2024-5-07T05:39:12Z
2024-05-07T03:39:33Z,42.805,6.029,13.3040,4.60127,2470.833,2024-5-07T05:42:15Z
2024-05-07T03:42:37Z,42.805,6.029,13.3041,4.60129,2470.857,2024-5-07T05:45:19Z
2024-05-07T03:45:40Z,42.805,6.029,13.3041,4.60129,2470.857,2024-5-07T05:48:22Z
2024-05-07T03:48:43Z,42.805,6.029,13.3036,4.60128,2470.857,2024-5-07T05:51:25Z
2024-05-07T03:51:46Z,42.805,6.029,13.3039,4.60130,2470.871,2024-5-07T05:54:28Z
2024-05-07T03:54:49Z,42.805,6.029,13.3037,4.60132,2470.88,2024-5-07T05:57:31Z
2024-05-07T03:57:52Z,42.805,6.029,13.3039,4.60132,2470.88,2024-5-07T06:00:34Z
2024-05-07T04:00:57Z,42.805,6.029,13.3040,4.60129,2470.904,2024-5-07T06:03:39Z
2024-05-07T04:04:00Z,42.805,6.029,13.3037,4.60132,2470.857,2024-5-07T06:06:42Z
2024-05-07T04:07:03Z,42.805,6.029,13.3038,4.60130,2470.904,2024-5-07T06:09:45Z
2024-05-07T04:10:06Z,42.805,6.029,13.3040,4.60129,2470.857,2024-5-07T06:12:48Z
2024-05-07T04:13:09Z,42.805,6.029,13.3038,4.60131,2470.857,2024-5-07T06:15:51Z
2024-05-07T04:16:12Z,42.805,6.029,13.3039,4.60129,2470.894,2024-5-07T06:18:54Z
2024-05-07T04:19:15Z,42.805,6.029,13.3041,4.60132,2470.857,2024-5-07T06:21:57Z
2024-05-07T04:22:18Z,42.805,6.029,13.3041,4.60129,2470.88,2024-5-07T06:25:00Z
2024-05-07T04:25:21Z,42.805,6.029,13.3037,4.60129,2470.904,2024-5-07T06:28:03Z
2024-05-07T04:28:24Z,42.805,6.029,13.3038,4.60132,2470.94,2024-5-07T06:31:06Z
2024-05-07T04:31:27Z,42.805,6.029,13.3039,4.60129,2470.904,2024-5-07T06:34:09Z
2024-05-07T04:34:30Z,42.805,6.029,13.3036,4.60131,2470.904,2024-5-07T06:37:12Z
2024-05-07T04:37:33Z,42.805,6.029,13.3041,4.60130,2470.927,2024-5-07T06:40:15Z
2024-05-07T04:40:37Z,42.805,6.029,13.3040,4.60130,2470.904,2024-5-07T06:43:19Z
2024-05-07T04:43:40Z,42.805,6.029,13.3039,4.60128,2470.904,2024-5-07T06:46:22Z
2024-05-07T04:46:43Z,42.805,6.029,13.3040,4.60131,2470.917,2024-5-07T06:49:25Z
2024-05-07T04:49:46Z,42.805,6.029,13.3041,4.60131,2470.927,2024-5-07T06:52:28Z
2024-05-07T04:52:49Z,42.805,6.029,13.3039,4.60132,2470.88,2024-5-07T06:55:31Z
2024-05-07T04:55:52Z,42.805,6.029,13.3040,4.60132,2470.927,2024-5-07T06:58:34Z
2024-05-07T04:58:55Z,42.805,6.029,13.3038,4.60130,2470.95,2024-5-07T07:01:37Z
2024-05-07T05:01:58Z,42.805,6.029,13.3038,4.60130,2470.927,2024-5-07T07:04:40Z
2024-05-07T05:05:01Z,42.805,6.029,13.3040,4.60128,2470.927,2024-5-07T07:07:43Z
2024-05-07T05:08:04Z,42.805,6.029,13.3039,4.60130,2470.94,2024-5-07T07:10:46Z
2024-05-07T05:11:07Z,42.805,6.029,13.3040,4.60130,2470.95,2024-5-07T07:13:49Z
2024-05-07T05:14:10Z,42.805,6.029,13.3041,4.60132,2470.927,2024-5-07T07:16:52Z
2024-05-07T05:17:13Z,42.805,6.029,13.3040,4.60131,2470.904,2024-5-07T07:19:55Z
2024-05-07T05:20:17Z,42.805,6.029,13.3041,4.60132,2470.95,2024-5-07T07:22:59Z
2024-05-07T05:23:20Z,42.805,6.029,13.3039,4.60130,2470.927,2024-5-07T07:26:02Z
2024-05-07T05:26:23Z,42.805,6.029,13.3041,4.60132,2470.95,2024-5-07T07:29:05Z
2024-05-07T05:29:26Z,42.805,6.029,13.3042,4.60132,2470.95,2024-5-07T07:32:08Z
2024-05-07T05:32:29Z,42.805,6.029,13.3036,4.60130,2470.964,2024-5-07T07:35:11Z
2024-05-07T05:35:32Z,42.805,6.029,13.3034,4.60133,2470.904,2024-5-07T07:38:14Z
2024-05-07T05:38:35Z,42.805,6.029,13.3037,4.60130,2470.927,2024-5-07T07:41:17Z
2024-05-07T05:41:38Z,42.805,6.029,13.3040,4.60130,2470.964,2024-5-07T07:44:20Z
2024-05-07T05:44:41Z,42.805,6.029,13.3038,4.60129,2470.904,2024-5-07T07:47:23Z
2024-05-07T05:47:44Z,42.805,6.029,13.3040,4.60131,2470.927,2024-5-07T07:50:26Z
2024-05-07T05:50:47Z,42.805,6.029,13.3043,4.60129,2470.95,2024-5-07T07:53:29Z
2024-05-07T05:53:50Z,42.805,6.029,13.3037,4.60129,2470.964,2024-5-07T07:56:32Z
2024-05-07T05:56:53Z,42.805,6.029,13.3042,4.60134,2470.95,2024-5-07T07:59:35Z
2024-05-07T05:59:57Z,42.805,6.029,13.3040,4.60131,2470.95,2024-5-07T08:02:39Z
2024-05-07T06:03:00Z,42.805,6.029,13.3039,4.60130,2470.95,2024-5-07T08:05:42Z
2024-05-07T06:06:03Z,42.805,6.029,13.3041,4.60131,2470.95,2024-5-07T08:08:45Z
2024-05-07T06:09:06Z,42.805,6.029,13.3037,4.60132,2470.927,2024-5-07T08:11:48Z
2024-05-07T06:12:09Z,42.805,6.029,13.3039,4.60130,2470.95,2024-5-07T08:14:51Z
2024-05-07T06:15:12Z,42.805,6.029,13.3040,4.60130,2470.927,2024-5-07T08:17:54Z
2024-05-07T06:18:15Z,42.805,6.029,13.3039,4.60131,2470.973,2024-5-07T08:20:57Z
2024-05-07T06:21:18Z,42.805,6.029,13.3041,4.60132,2470.94,2024-5-07T08:24:00Z
2024-05-07T06:24:21Z,42.805,6.029,13.3043,4.60130,2470.95,2024-5-07T08:27:03Z
2024-05-07T06:27:24Z,42.805,6.029,13.3041,4.60132,2470.964,2024-5-07T08:30:06Z
2024-05-07T06:30:27Z,42.805,6.029,13.3043,4.60132,2470.964,2024-5-07T08:33:09Z
2024-05-07T06:33:30Z,42.805,6.029,13.3040,4.60131,2470.964,2024-5-07T08:36:12Z
2024-05-07T06:36:34Z,42.805,6.029,13.3043,4.60131,2470.927,2024-5-07T08:39:16Z
2024-05-07T06:39:37Z,42.805,6.029,13.3043,4.60131,2470.927,2024-5-07T08:42:19Z
2024-05-07T06:42:40Z,42.805,6.029,13.3036,4.60130,2470.973,2024-5-07T08:45:22Z
2024-05-07T06:45:43Z,42.805,6.029,13.3041,4.60130,2470.95,2024-5-07T08:48:25Z
2024-05-07T06:48:46Z,42.805,6.029,13.3039,4.60131,2470.973,2024-5-07T08:51:28Z
2024-05-07T06:51:49Z,42.805,6.029,13.3039,4.60130,2470.94,2024-5-07T08:54:31Z
2024-05-07T06:54:52Z,42.805,6.029,13.3041,4.60131,2470.95,2024-5-07T08:57:34Z
2024-05-07T06:57:55Z,42.805,6.029,13.3043,4.60132,2470.95,2024-5-07T09:00:37Z
2024-05-07T07:00:58Z,42.805,6.029,13.3037,4.60131,2470.927,2024-5-07T09:03:40Z
2024-05-07T07:04:01Z,42.805,6.029,13.3042,4.60131,2470.973,2024-5-07T09:06:43Z
2024-05-07T07:07:04Z,42.805,6.029,13.3038,4.60131,2470.927,2024-5-07T09:09:46Z
2024-05-07T07:10:07Z,42.805,6.029,13.3041,4.60131,2470.94,2024-5-07T09:12:49Z
2024-05-07T07:13:10Z,42.805,6.029,13.3039,4.60129,2470.913,2024-5-07T09:15:52Z
2024-05-07T07:16:14Z,42.805,6.029,13.3038,4.60131,2470.95,2024-5-07T09:18:56Z
2024-05-07T07:19:17Z,42.805,6.029,13.3040,4.60129,2470.927,2024-5-07T09:21:59Z
2024-05-07T07:22:20Z,42.805,6.029,13.3038,4.60130,2470.904,2024-5-07T09:25:02Z
2024-05-07T07:25:23Z,42.805,6.029,13.3041,4.60129,2470.904,2024-5-07T09:28:05Z
2024-05-07T07:28:26Z,42.805,6.029,13.3043,4.60130,2470.94,2024-5-07T09:31:08Z
2024-05-07T07:31:29Z,42.805,6.029,13.3042,4.60131,2470.917,2024-5-07T09:34:11Z
2024-05-07T07:34:32Z,42.805,6.029,13.3040,4.60131,2470.927,2024-5-07T09:37:14Z
2024-05-07T07:37:35Z,42.805,6.029,13.3042,4.60130,2470.927,2024-5-07T09:40:17Z
2024-05-07T07:40:38Z,42.805,6.029,13.3039,4.60130,2470.927,2024-5-07T09:43:20Z
2024-05-07T07:43:41Z,42.805,6.029,13.3041,4.60130,2470.964,2024-5-07T09:46:23Z
2024-05-07T07:46:44Z,42.805,6.029,13.3040,4.60130,2470.927,2024-5-07T09:49:26Z
2024-05-07T07:49:47Z,42.805,6.029,13.3041,4.60130,2470.94,2024-5-07T09:52:29Z
2024-05-07T07:52:50Z,42.805,6.029,13.3038,4.60131,2470.904,2024-5-07T09:55:32Z
2024-05-07T07:55:54Z,42.805,6.029,13.3036,4.60132,2470.927,2024-5-07T09:58:36Z
2024-05-07T07:58:57Z,42.805,6.029,13.3039,4.60131,2470.904,2024-5-07T10:01:39Z
2024-05-07T08:01:59Z,42.805,6.029,13.3039,4.60129,2470.927,2024-5-07T10:04:41Z
2024-05-07T08:05:02Z,42.805,6.029,13.3041,4.60130,2470.89,2024-5-07T10:07:44Z
2024-05-07T08:08:05Z,42.805,6.029,13.3036,4.60129,2470.88,2024-5-07T10:10:47Z
2024-05-07T08:11:08Z,42.805,6.029,13.3040,4.60129,2470.88,2024-5-07T10:13:50Z
2024-05-07T08:14:11Z,42.805,6.029,13.3042,4.60130,2470.94,2024-5-07T10:16:53Z
2024-05-07T08:17:14Z,42.805,6.029,13.3037,4.60129,2470.917,2024-5-07T10:19:56Z
2024-05-07T08:20:17Z,42.805,6.029,13.3042,4.60130,2470.894,2024-5-07T10:22:59Z
2024-05-07T08:23:20Z,42.805,6.029,13.3044,4.60129,2470.88,2024-5-07T10:26:02Z
2024-05-07T08:26:24Z,42.805,6.029,13.3038,4.60129,2470.88,2024-5-07T10:29:06Z
2024-05-07T08:29:27Z,42.805,6.029,13.3037,4.60129,2470.88,2024-5-07T10:32:09Z
2024-05-07T08:32:30Z,42.805,6.029,13.3038,4.60130,2470.904,2024-5-07T10:35:12Z
2024-05-07T08:35:33Z,42.805,6.029,13.3040,4.60129,2470.871,2024-5-07T10:38:15Z
2024-05-07T08:38:36Z,42.805,6.029,13.3039,4.60129,2470.894,2024-5-07T10:41:18Z
2024-05-07T08:41:39Z,42.805,6.029,13.3039,4.60129,2470.857,2024-5-07T10:44:21Z
2024-05-07T08:44:42Z,42.805,6.029,13.3044,4.60129,2470.88,2024-5-07T10:47:24Z
2024-05-07T08:47:45Z,42.805,6.029,13.3038,4.60129,2470.871,2024-5-07T10:50:27Z
2024-05-07T08:50:48Z,42.805,6.029,13.3040,4.60132,2470.894,2024-5-07T10:53:30Z
2024-05-07T08:53:51Z,42.805,6.029,13.3041,4.60129,2470.88,2024-5-07T10:56:33Z
2024-05-07T08:56:54Z,42.805,6.029,13.3039,4.60129,2470.871,2024-5-07T10:59:36Z
2024-05-07T08:59:57Z,42.805,6.029,13.3040,4.60131,2470.847,2024-5-07T11:02:39Z
2024-05-07T09:03:01Z,42.805,6.029,13.3039,4.60132,2470.88,2024-5-07T11:05:43Z
2024-05-07T09:06:04Z,42.805,6.029,13.3041,4.60129,2470.847,2024-5-07T11:08:46Z
2024-05-07T09:09:07Z,42.805,6.029,13.3041,4.60130,2470.857,2024-5-07T11:11:49Z
2024-05-07T09:12:10Z,42.805,6.029,13.3041,4.60129,2470.833,2024-5-07T11:14:52Z
2024-05-07T09:15:13Z,42.805,6.029,13.3039,4.60129,2470.847,2024-5-07T11:17:55Z
2024-05-07T09:18:16Z,42.805,6.029,13.3037,4.60130,2470.833,2024-5-07T11:20:58Z
2024-05-07T09:21:19Z,42.805,6.029,13.3038,4.60130,2470.847,2024-5-07T11:24:01Z
2024-05-07T09:24:22Z,42.805,6.029,13.3040,4.60130,2470.833,2024-5-07T11:27:04Z
2024-05-07T09:27:25Z,42.805,6.029,13.3037,4.60130,2470.871,2024-5-07T11:30:07Z
2024-05-07T09:30:28Z,42.805,6.029,13.3040,4.60130,2470.871,2024-5-07T11:33:10Z
2024-05-07T09:33:31Z,42.805,6.029,13.3040,4.60129,2470.81,2024-5-07T11:36:13Z
2024-05-07T09:36:35Z,42.805,6.029,13.3041,4.60130,2470.81,2024-5-07T11:39:17Z
2024-05-07T09:39:38Z,42.805,6.029,13.3043,4.60129,2470.787,2024-5-07T11:42:20Z
2024-05-07T09:42:41Z,42.805,6.029,13.3042,4.60130,2470.857,2024-5-07T11:45:23Z
2024-05-07T09:45:44Z,42.805,6.029,13.3041,4.60130,2470.824,2024-5-07T11:48:26Z
2024-05-07T09:48:47Z,42.805,6.029,13.3041,4.60131,2470.847,2024-5-07T11:51:29Z
2024-05-07T09:51:50Z,42.805,6.029,13.3040,4.60129,2470.8,2024-5-07T11:54:32Z
2024-05-07T09:54:53Z,42.805,6.029,13.3039,4.60130,2470.81,2024-5-07T11:57:35Z
2024-05-07T09:57:56Z,42.805,6.029,13.3041,4.60130,2470.81,2024-5-07T12:00:38Z
2024-05-07T10:01:00Z,42.805,6.029,13.3041,4.60130,2470.824,2024-5-07T12:03:42Z
2024-05-07T10:04:03Z,42.805,6.029,13.3039,4.60129,2470.787,2024-5-07T12:06:45Z
2024-05-07T10:07:06Z,42.805,6.029,13.3040,4.60129,2470.833,2024-5-07T12:09:48Z
2024-05-07T10:10:09Z,42.805,6.029,13.3040,4.60132,2470.81,2024-5-07T12:12:51Z
2024-05-07T10:13:12Z,42.805,6.029,13.3040,4.60130,2470.787,2024-5-07T12:15:54Z
2024-05-07T10:16:15Z,42.805,6.029,13.3040,4.60132,2470.787,2024-5-07T12:18:57Z
2024-05-07T10:19:18Z,42.805,6.029,13.3041,4.60129,2470.81,2024-5-07T12:22:00Z
2024-05-07T10:22:21Z,42.805,6.029,13.3037,4.60130,2470.763,2024-5-07T12:25:04Z
2024-05-07T10:25:25Z,42.805,6.029,13.3041,4.60131,2470.777,2024-5-07T12:28:07Z
2024-05-07T10:28:28Z,42.805,6.029,13.3037,4.60130,2470.8,2024-5-07T12:31:10Z
2024-05-07T10:31:31Z,42.805,6.029,13.3040,4.60130,2470.74,2024-5-07T12:34:13Z
2024-05-07T10:34:34Z,42.805,6.029,13.3039,4.60130,2470.787,2024-5-07T12:37:16Z
2024-05-07T10:37:37Z,42.805,6.029,13.3042,4.60131,2470.787,2024-5-07T12:40:19Z
2024-05-07T10:40:40Z,42.805,6.029,13.3041,4.60132,2470.763,2024-5-07T12:43:22Z
2024-05-07T10:43:43Z,42.805,6.029,13.3037,4.60131,2470.787,2024-5-07T12:46:25Z
2024-05-07T10:46:46Z,42.805,6.029,13.3038,4.60129,2470.754,2024-5-07T12:49:28Z
2024-05-07T10:49:49Z,42.805,6.029,13.3039,4.60129,2470.74,2024-5-07T12:52:31Z
2024-05-07T10:52:52Z,42.805,6.029,13.3038,4.60128,2470.777,2024-5-07T12:55:34Z
2024-05-07T10:55:55Z,42.805,6.029,13.3038,4.60129,2470.763,2024-5-07T12:58:37Z
2024-05-07T10:58:58Z,42.805,6.029,13.3043,4.60129,2470.74,2024-5-07T13:01:41Z
2024-05-07T11:02:02Z,42.805,6.029,13.3042,4.60129,2470.717,2024-5-07T13:04:44Z
2024-05-07T11:05:05Z,42.805,6.029,13.3037,4.60130,2470.763,2024-5-07T13:07:47Z
2024-05-07T11:08:08Z,42.805,6.029,13.3039,4.60131,2470.763,2024-5-07T13:10:50Z
2024-05-07T11:11:11Z,42.805,6.029,13.3041,4.60130,2470.754,2024-5-07T13:13:53Z
2024-05-07T11:14:14Z,42.805,6.029,13.3040,4.60130,2470.763,2024-5-07T13:16:56Z
2024-05-07T11:17:17Z,42.805,6.029,13.3037,4.60131,2470.777,2024-5-07T13:19:59Z
2024-05-07T11:20:20Z,42.805,6.029,13.3036,4.60129,2470.787,2024-5-07T13:23:02Z
2024-05-07T11:23:23Z,42.805,6.029,13.3040,4.60130,2470.754,2024-5-07T13:26:05Z
2024-05-07T11:26:26Z,42.805,6.029,13.3041,4.60129,2470.754,2024-5-07T13:29:08Z
2024-05-07T11:29:29Z,42.805,6.029,13.3041,4.60131,2470.717,2024-5-07T13:32:11Z
2024-05-07T11:32:32Z,42.805,6.029,13.3041,4.60129,2470.717,2024-5-07T13:35:14Z
2024-05-07T11:35:35Z,42.805,6.029,13.3040,4.60129,2470.717,2024-5-07T13:38:17Z
2024-05-07T11:38:39Z,42.805,6.029,13.3037,4.60129,2470.73,2024-5-07T13:41:21Z
2024-05-07T11:41:42Z,42.805,6.029,13.3041,4.60129,2470.754,2024-5-07T13:44:24Z
2024-05-07T11:44:45Z,42.805,6.029,13.3039,4.60129,2470.73,2024-5-07T13:47:27Z
2024-05-07T11:47:48Z,42.805,6.029,13.3042,4.60129,2470.707,2024-5-07T13:50:30Z
2024-05-07T11:50:51Z,42.805,6.029,13.3043,4.60130,2470.717,2024-5-07T13:53:33Z
2024-05-07T11:53:54Z,42.805,6.029,13.3039,4.60129,2470.707,2024-5-07T13:56:36Z
2024-05-07T11:56:57Z,42.805,6.029,13.3041,4.60131,2470.73,2024-5-07T13:59:39Z
2024-05-07T12:00:00Z,42.805,6.029,13.3041,4.60131,2470.717,2024-5-07T14:02:42Z
2024-05-07T12:03:03Z,42.805,6.029,13.3040,4.60130,2470.73,2024-5-07T14:05:45Z
2024-05-07T12:06:06Z,42.805,6.029,13.3039,4.60129,2470.679,2024-5-07T14:08:48Z
2024-05-07T12:09:09Z,42.805,6.029,13.3041,4.60129,2470.693,2024-5-07T14:11:51Z
2024-05-07T12:12:13Z,42.805,6.029,13.3043,4.60129,2470.693,2024-5-07T14:14:55Z
2024-05-07T12:15:16Z,42.805,6.029,13.3036,4.60129,2470.73,2024-5-07T14:17:58Z
2024-05-07T12:18:19Z,42.805,6.029,13.3037,4.60130,2470.707,2024-5-07T14:21:01Z
2024-05-07T12:21:22Z,42.805,6.029,13.3037,4.60129,2470.693,2024-5-07T14:24:04Z
2024-05-07T12:24:25Z,42.805,6.029,13.3040,4.60130,2470.707,2024-5-07T14:27:07Z
2024-05-07T12:27:28Z,42.805,6.029,13.3041,4.60129,2470.67,2024-5-07T14:30:10Z
2024-05-07T12:30:31Z,42.805,6.029,13.3044,4.60129,2470.717,2024-5-07T14:33:13Z
2024-05-07T12:33:34Z,42.805,6.029,13.3037,4.60130,2470.67,2024-5-07T14:36:16Z
2024-05-07T12:36:37Z,42.805,6.029,13.3040,4.60129,2470.693,2024-5-07T14:39:19Z
2024-05-07T12:39:40Z,42.805,6.029,13.3043,4.60130,2470.693,2024-5-07T14:42:22Z
2024-05-07T12:42:43Z,42.805,6.029,13.3040,4.60129,2470.693,2024-5-07T14:45:25Z
2024-05-07T12:45:46Z,42.805,6.029,13.3043,4.60129,2470.717,2024-5-07T14:48:28Z
2024-05-07T12:48:49Z,42.805,6.029,13.3042,4.60129,2470.717,2024-5-07T14:51:32Z
2024-05-07T12:51:53Z,42.805,6.029,13.3043,4.60129,2470.74,2024-5-07T14:54:35Z
2024-05-07T12:54:56Z,42.805,6.029,13.3041,4.60129,2470.717,2024-5-07T14:57:38Z
2024-05-07T12:57:59Z,42.805,6.029,13.3038,4.60130,2470.693,2024-5-07T15:00:41Z
2024-05-07T13:01:02Z,42.805,6.029,13.3036,4.60130,2470.67,2024-5-07T15:03:44Z
2024-05-07T13:04:05Z,42.805,6.029,13.3039,4.60130,2470.707,2024-5-07T15:06:47Z
2024-05-07T13:07:08Z,42.805,6.029,13.3039,4.60129,2470.693,2024-5-07T15:09:50Z
2024-05-07T13:10:11Z,42.805,6.029,13.3041,4.60129,2470.67,2024-5-07T15:12:53Z
2024-05-07T13:13:14Z,42.805,6.029,13.3041,4.60129,2470.684,2024-5-07T15:15:56Z
2024-05-07T13:16:17Z,42.805,6.029,13.3042,4.60130,2470.67,2024-5-07T15:18:59Z
2024-05-07T13:19:20Z,42.805,6.029,13.3042,4.60129,2470.684,2024-5-07T15:22:02Z
2024-05-07T13:22:23Z,42.805,6.029,13.3041,4.60129,2470.67,2024-5-07T15:25:05Z
2024-05-07T13:25:27Z,42.805,6.029,13.3040,4.60128,2470.73,2024-5-07T15:28:09Z
2024-05-07T13:28:30Z,42.805,6.029,13.3036,4.60129,2470.693,2024-5-07T15:31:12Z
2024-05-07T13:31:33Z,42.805,6.029,13.3041,4.60129,2470.67,2024-5-07T15:34:15Z
2024-05-07T13:34:36Z,42.805,6.029,13.3038,4.60129,2470.684,2024-5-07T15:37:18Z
2024-05-07T13:37:39Z,42.805,6.029,13.3043,4.60130,2470.707,2024-5-07T15:40:21Z
2024-05-07T13:40:42Z,42.805,6.029,13.3043,4.60129,2470.693,2024-5-07T15:43:24Z
2024-05-07T13:43:45Z,42.805,6.029,13.3041,4.60129,2470.707,2024-5-07T15:46:27Z
2024-05-07T13:46:48Z,42.805,6.029,13.3042,4.60131,2470.67,2024-5-07T15:49:30Z
2024-05-07T13:49:51Z,42.805,6.029,13.3037,4.60129,2470.693,2024-5-07T15:52:33Z
2024-05-07T13:52:54Z,42.805,6.029,13.3040,4.60131,2470.707,2024-5-07T15:55:36Z
2024-05-07T13:55:57Z,42.805,6.029,13.3041,4.60130,2470.693,2024-5-07T15:58:39Z
2024-05-07T13:59:00Z,42.805,6.029,13.3043,4.60130,2470.646,2024-5-07T16:01:42Z
2024-05-07T14:02:03Z,42.805,6.029,13.3039,4.60128,2470.754,2024-5-07T16:04:46Z
2024-05-07T14:05:07Z,42.805,6.029,13.3041,4.60129,2470.67,2024-5-07T16:07:49Z
2024-05-07T14:08:10Z,42.805,6.029,13.3039,4.60130,2470.693,2024-5-07T16:10:52Z
2024-05-07T14:11:13Z,42.805,6.029,13.3036,4.60128,2470.693,2024-5-07T16:13:55Z
2024-05-07T14:14:16Z,42.805,6.029,13.3039,4.60129,2470.684,2024-5-07T16:16:58Z
2024-05-07T14:17:19Z,42.805,6.029,13.3041,4.60129,2470.717,2024-5-07T16:20:01Z
2024-05-07T14:20:22Z,42.805,6.029,13.3040,4.60129,2470.693,2024-5-07T16:23:04Z
2024-05-07T14:23:25Z,42.805,6.029,13.3041,4.60129,2470.707,2024-5-07T16:26:07Z
2024-05-07T14:26:28Z,42.805,6.029,13.3040,4.60128,2470.679,2024-5-07T16:29:10Z
2024-05-07T14:29:31Z,42.805,6.029,13.3041,4.60128,2470.754,2024-5-07T16:32:13Z
2024-05-07T14:32:34Z,42.805,6.029,13.3039,4.60127,2470.707,2024-5-07T16:35:16Z
2024-05-07T14:35:37Z,42.805,6.029,13.3040,4.60131,2470.693,2024-5-07T16:38:19Z
2024-05-07T14:38:40Z,42.805,6.029,13.3040,4.60129,2470.707,2024-5-07T16:41:23Z
2024-05-07T14:41:44Z,42.805,6.029,13.3039,4.60128,2470.74,2024-5-07T16:44:26Z
2024-05-07T14:44:47Z,42.805,6.029,13.3041,4.60128,2470.717,2024-5-07T16:47:29Z
2024-05-07T14:47:50Z,42.805,6.029,13.3041,4.60128,2470.754,2024-5-07T16:50:32Z
2024-05-07T14:50:53Z,42.805,6.029,13.3039,4.60128,2470.74,2024-5-07T16:53:35Z
2024-05-07T14:53:56Z,42.805,6.029,13.3040,4.60129,2470.74,2024-5-07T16:56:38Z
2024-05-07T14:56:59Z,42.805,6.029,13.3039,4.60130,2470.73,2024-5-07T16:59:41Z
2024-05-07T15:00:02Z,42.805,6.029,13.3038,4.60130,2470.74,2024-5-07T17:02:44Z
2024-05-07T15:03:05Z,42.805,6.029,13.3039,4.60129,2470.754,2024-5-07T17:05:47Z
2024-05-07T15:06:08Z,42.805,6.029,13.3041,4.60128,2470.754,2024-5-07T17:08:50Z
2024-05-07T15:09:11Z,42.805,6.029,13.3041,4.60128,2470.754,2024-5-07T17:11:53Z
2024-05-07T15:12:14Z,42.805,6.029,13.3039,4.60129,2470.74,2024-5-07T17:14:56Z
2024-05-07T15:15:17Z,42.805,6.029,13.3041,4.60129,2470.717,2024-5-07T17:17:59Z